#timestamp,LO_Frequency,Hit,StdDev 
1542204015.1,286046995.7,N
1542204016.0,286046995.7,N
1542204035.8,286046995.8,N
1542204055.7,286046995.5,N
1542204075.5,286046995.2,N
1542204095.4,286046998.0,N
1542204115.2,286046995.8,N
1542204135.0,286046991.8,Y
1542204135.9,286046991.8,P
1542204155.8,286046995.3,N
1542204175.6,286046995.2,N
1542204195.4,286046995.7,N
1542204215.3,286046995.4,N
1542204235.1,286046995.5,N
1542204255.9,286046996.1,N
1542204275.7,286046996.6,N
1542204295.5,286046997.8,N
1542204315.4,286046995.7,N
1542204335.2,286046993.4,Y
1542204355.0,286047001.1,P
1542204355.9,286047001.1,N
1542204375.8,286047001.1,N
1542204395.6,286046997.0,N
1542204415.5,286046999.5,N
1542204435.3,286046998.4,N
1542204455.1,286047000.5,N
1542204475.9,286047001.2,N
1542204495.7,286047000.4,N
1542204515.5,286047000.4,N
1542204535.4,286047002.0,N
1542204555.2,286047001.5,N
1542204575.1,286047003.9,N
1542204576.0,286047003.9,N
1542204595.8,286047006.0,N
1542204615.6,286047004.1,N
1542204635.5,286047001.6,N
1542204655.3,286047004.2,N
1542204675.1,286047004.2,N
1542204695.9,286047005.5,N
1542204715.7,286047004.7,N
1542204735.6,286047005.4,N
1542204755.4,286047004.2,N
1542204775.2,286047003.5,N
1542204795.1,286047004.4,N
1542204796.0,286047004.4,N
1542204815.8,286047002.0,N
1542204835.6,286047001.1,N
1542204855.5,286046998.9,N
1542204875.3,286047001.2,N
1542204895.2,286046998.3,N
1542204915.9,286047000.7,N
1542204935.7,286047001.7,N
1542204955.6,286047003.9,N
1542204975.4,286047001.8,N
1542204995.2,286047001.5,N
1542205015.1,286047002.2,N
1542205016.0,286047002.2,N
1542205035.8,286047001.4,N
1542205055.7,286047002.5,N
1542205075.5,286047002.4,N
1542205095.3,286047003.9,N
1542205115.2,286047001.5,N
1542205135.9,286047002.7,N
1542205155.7,286047000.9,N
1542205175.6,286047001.1,N
1542205195.4,286046996.5,N
1542205215.3,286046999.0,N
1542205235.1,286046999.4,N
1542205236.0,286046999.4,N
1542205255.8,286046999.5,N
1542205275.7,286047011.9,Y
1542205295.5,286046995.4,P
1542205315.3,286046997.9,N
1542205335.2,286046997.9,N
1542205355.0,286046997.6,N
1542205355.9,286046997.6,N
1542205375.8,286046997.2,N
1542205395.6,286046997.6,N
1542205415.4,286046997.2,N
1542205435.3,286046996.0,N
1542205455.1,286046995.9,N
1542205475.9,286046993.4,Y
1542205495.7,286046997.6,P
1542205515.5,286046995.0,P
1542205535.4,286046999.5,N
1542205555.2,286046999.1,N
1542205575.0,286047000.7,N
1542205575.9,286047000.7,N
1542205595.8,286047001.2,N
1542205615.6,286047000.8,N
1542205635.5,286047000.9,N
1542205655.3,286047001.1,N
1542205675.1,286047001.0,N
1542205695.9,286046998.2,N
1542205715.7,286047000.1,N
1542205735.5,286046999.8,N
1542205755.4,286047001.2,N
1542205775.2,286046998.7,N
1542205795.1,286046999.1,N
1542205796.0,286046999.1,N
1542205815.8,286046997.1,N
1542205835.6,286046998.0,N
1542205855.5,286046997.4,N
1542205875.3,286046994.9,Y
1542205895.2,286046995.7,P
1542205915.9,286046998.0,N
1542205935.7,286046996.4,N
1542205985.6,286046994.2,E
1542205995.5,286046997.6,N
1542206015.4,286046998.6,P
1542206035.2,286046998.7,N
1542206055.0,286046999.9,N
1542206055.9,286046999.9,N
1542206075.8,286047002.8,Y
1542206095.6,286047002.1,P
1542206115.5,286047003.9,N
1542206135.3,286047007.4,P
1542206155.1,286047005.2,N
1542206175.9,286047007.2,N
1542206195.7,286047006.7,N
1542206215.5,286047007.0,N
1542206235.4,286047003.4,N
1542206255.2,286047004.2,N
1542206275.0,286047003.4,N
1542206276.0,286047003.4,N
1542206295.8,286047005.2,N
1542206315.6,286047008.0,Y
1542206335.5,286047006.0,P
1542206355.3,286047003.7,P
1542206375.1,286047003.2,P
1542206395.9,286047001.7,N
1542206415.7,286047001.5,N
1542206435.6,286047004.4,N
1542206455.4,286047001.4,N
1542206475.2,286046999.7,N
1542206495.1,286047001.6,N
1542206496.0,286047001.6,N
1542206515.8,286047000.1,N
1542206535.7,286046999.1,N
1542206555.5,286046999.1,N
1542206575.3,286046999.4,N
1542206595.2,286046999.0,N
1542206615.9,286046996.5,N
1542206635.7,286046999.2,N
1542206655.6,286046999.1,N
1542206675.4,286047000.5,N
1542206695.2,286046998.3,N
1542206715.1,286046998.2,N
1542206716.0,286046998.2,N
1542206735.8,286047001.2,N
1542206755.7,286047001.1,N
1542206775.5,286047000.8,N
1542206795.3,286046998.8,N
1542206815.2,286046999.0,N
1542206835.0,286046997.2,N
1542206835.9,286046997.2,N
1542206855.8,286046997.1,N
1542206875.6,286046997.1,N
1542206895.4,286046995.0,N
1542206915.3,286046997.6,N
1542206935.1,286046997.2,N
1542206955.8,286046994.9,N
1542206975.7,286046995.1,N
1542206995.5,286046995.3,N
1542207015.3,286046995.1,N
1542207035.2,286046995.1,N
1542207055.0,286046997.9,N
1542207055.9,286046997.9,N
1542207075.8,286046997.4,N
1542207095.6,286046999.6,N
1542207115.4,286046996.7,N
1542207135.3,286046997.1,N
1542207155.1,286046998.9,N
1542207175.9,286047001.1,N
1542207195.7,286047000.3,N
1542207215.5,286047001.0,N
1542207235.4,286046998.6,N
1542207255.2,286046998.3,N
1542207275.0,286046998.6,N
1542207276.0,286046998.6,N
1542207295.8,286046998.8,N
1542207315.6,286046998.8,N
1542207335.5,286046998.1,N
1542207355.3,286046999.5,N
1542207375.1,286046996.8,N
1542207395.9,286046999.5,N
1542207415.7,286046999.5,N
1542207435.6,286046999.5,N
1542207455.4,286046997.9,N
1542207475.2,286046996.3,N
1542207495.1,286046993.4,Y
1542207496.0,286046993.4,P
1542207515.8,286046997.2,N
1542207535.7,286046997.4,N
1542207555.5,286046997.6,N
1542207575.3,286046997.5,N
1542207595.2,286046997.9,N
